Location: East Arcadia
(34.1056°N, 118.0176°W)
Time: 02:13:47
(UTC+00:00)

Cosmos 2366 rocket - Pass Details

Date: 01 April 2023
Orbit: 954 x 998 km, 82.9° (Epoch: 08 June)

Event Time Altitude Azimuth Distance (km) Brightness Sun altitude
Rises 12:33:41 0° 198° (SSW) 3,638 6.7 -14.2°
Reaches altitude 10° 12:36:14 10° 203° (SSW) 2,701 6.0 -13.7°
Maximum altitude 12:42:15 53° 279° (W) 1,186 4.1 -12.5°
Drops below altitude 10° 12:48:23 10° 356° (N) 2,746 6.5 -11.3°
Sets 12:51:01 0° 1° (N) 3,704 7.2 -10.7°
